星链-4754 (STARLINK-4754 )

导读 | 星芒AI

STARLINK-4754 是 SpaceX Starlink 项目中的一颗低轨卫星,属于该星座的众多通信卫星之一。它运行在约 550 公里的高度,旨在为全球用户提供高速互联网服务。该卫星采用先进的推进和通信技术,支持宽带数据传输,并具备自动避障能力。作为 Starlink 网络的一部分,STARLINK-4754 有助于扩大网络覆盖范围,特别是在偏远和网络基础设施薄弱的地区。其运行状态和轨道数据可通过卫星追踪平台实时获取。

基本信息
目录编号:
53842
目录名称:
STARLINK-4754
国际标识:
2022-114AA
轨道中心:
EARTH
卫星名称:
星链-4754
卫星全名:
星链-4754 (STARLINK-4754 )
卫星状态:
在轨 (已飞行1143 天)
发射日期:
2022-09-19 UTC
国别 :
美国 (US)
星等 :
--
轨道信息
数据来源 国际轨道数据
星历时间: 2025-11-04T07:26:33+0800
1天前
查看轨道信息
半长轴: 6917.89km
偏心率: 0.0001245
轨道倾角: 53.216°
近地点辐角 89.508°
升交点赤经 138.439°
平近点角 270.605°
近地点: 538.893km
远地点: 540.617km
周期: 95.438分钟
每日圈数: 15.088371
详细信息
固有亮度:
5
最大亮度:
2.5
卫星平台:
Starlink v1.5
覆盖范围:
全球
运营商:
太空探索技术公司
运营商所在国:
美国
制造商(研发单位):
太空探索技术公司
制造商所在国:
美国
使用方式:
暂无
卫星简介
星链(Starlink)计划是由太空探索技术公司(SpaceX)提出的一个巨型低轨卫星互联网星座项目,计划在2019年至2024年间在太空搭建由约1.2万颗卫星组成的“星链”网络,其中1584颗将部署在地球上空550千米处的近地轨道,并从2020年开始工作。该卫星仍在工作。
2D轨道图
3D轨道图
轨道高度分析图
轨道倾角分析图
轨道综合分析图
查看轨道综合分析图